sat.trackr.live / text

‹ back to catalog

HAWK-13A

NORAD 67392 · 2026-004AF

PAYLOAD ACTIVE UNKNOWN

§ Identity

Operator
Country
US
Launch date
2026-01-11
Launch site
AFWTR
Launch vehicle
Mass (kg)
RCS (m²)

External: N2YO · Heavens-Above · Gunter

§ Orbital elements

Epoch: 2026-05-24T22:35:33.789120Z

Period
94.80 min
Inclination
97.4440°
Eccentricity
0.0007204
Mean motion
15.18915038 rev/d
Perigee alt
504.2 km
Apogee alt
514.1 km
Semi-major
6,887.3 km
B*
2.0763e-4
RAAN
144.1523°
Arg perigee
63.1526°
Mean anomaly
297.0445°
Rev number
2,023

§ Raw data

HAWK-13A1 67392U 26004AF  26144.94136330  .00004268  00000+0  20763-3 0  99952 67392  97.4440 144.1523 0007204  63.1526 297.0445 15.18915038 20232

JSON: /api/v1/satellites/67392 · /tle

For live sub-satellite position, see the globe view (requires WebGL).

§ Visibility from observer

Set your observer location to see the next 7 days of passes ≥ 10°. The values pass through the URL so the page stays shareable.

No JS? Fill the form by hand. The geolocation button needs JavaScript.